User: anonymous   Login
Location: Great Northern Moose Lodge
(44.6765°N, 71.1811°W)
Time: 17:40:17
(UTC-04:00)
Language:

Terra - Orbit

View from above orbital plane
View from above orbital plane
View from above satellite
View from above satellite

Ground track
Ground track

The orbit data is extracted from the following two-line orbital elements,

1 25994U 99068A   16120.19648930  .00000108  00000-0  33999-4 0  9997
2 25994  98.2107 195.1768 0000876  71.8992 288.2305 14.57090614870383
Epoch (UTC): 29 April 2016 04:42:56
Eccentricity: 0.0000876
inclination: 98.2107°
perigee height: 702 km
apogee height: 703 km
right ascension of ascending node: 195.1768°
argument of perigee: 71.8992°
revolutions per day: 14.57090614
mean anomaly at epoch: 288.2305°
orbit number at epoch: 87038

The dashed part of the orbit path shows where the satellite is in the earth's shadow,  

DLR